GW0410 Weather Reports


time (UTC)temp
C
wind
direction
speed
KPH
gust
KPH
rain 1hr
cm
rain 24hr
cm
rain mn
cm
humidity
%
barometer
mb
20260831083520 19 0.0 0.0 0.00 0.00 0.00 87 1015.8
20260831082519 19 0.0 0.0 0.00 0.00 0.00 86 1015.8
20260831081540 19 0.0 0.0 0.00 0.00 0.00 85 1015.8
20260831080523 20 0.0 0.0 0.00 0.00 0.00 85 1015.9
20260831075519 20 0.0 0.0 0.00 0.00 0.00 84 1015.6
20260831074521 20 0.0 0.0 0.00 0.00 0.00 83 1015.6
20260831073554 20 0.0 0.0 0.00 0.00 0.00 84 1015.6
20260831072520 20 0.0 0.0 0.00 0.00 0.00 84 1015.6
20260831071520 20 0.0 0.0 0.00 0.00 0.00 84 1015.6
20260831070606 20 0.0 0.0 0.00 0.00 0.00 84 1015.6
20260831065523 20 0.0 0.0 0.00 0.00 0.00 85 1015.6
20260831064520 19 0.0 0.0 0.00 0.00 0.00 90 1016.0
20260831063551 18 0.0 0.0 0.00 0.00 0.00 93 1016.0
20260831062603 17 0.0 0.0 0.00 0.00 0.00 94 1015.9
20260831061521 17 0.0 0.0 0.00 0.00 0.00 94 1015.9
20260831060520 17 0.0 0.0 0.00 0.00 0.00 95 1015.9
20260831055520 17 0.0 0.0 0.00 0.00 0.00 95 1015.9
20260831054523 17 0.0 0.0 0.00 0.00 0.00 96 1016.0
20260831053520 16 0.0 0.0 0.00 0.00 0.00 96 1015.9
20260831052540 16 0.0 0.0 0.00 0.00 0.00 96 1015.9
20260831051552 16 0.0 0.0 0.00 0.00 0.00 97 1016.0
20260831050521 15 0.0 0.0 0.00 0.00 0.00 97 1016.0
20260831045521 15 0.0 0.0 0.00 0.00 0.00 97 1016.0
20260831044519 15 0.0 0.0 0.00 0.00 0.00 97 1016.0
20260831043520 15 0.0 0.0 0.00 0.00 0.00 97 1016.0
20260831042553 15 0.0 0.0 0.00 0.00 0.00 97 1016.0
20260831041523 15 0.0 0.0 0.00 0.00 0.00 97 1016.0
20260831040520 15 0.0 0.0 0.00 0.00 0.00 97 1016.0
20260831035523 15 0.0 0.0 0.00 0.00 0.00 97 1015.7
20260831034523 14 0.0 0.0 0.00 0.00 0.00 97 1015.8
20260831033525 14 0.0 0.0 0.00 0.00 0.00 97 1015.8
20260831032522 14 0.0 0.0 0.00 0.00 0.00 97 1015.8
20260831031518 14 0.0 0.0 0.00 0.00 0.00 97 1015.9
20260831030540 14 0.0 0.0 0.00 0.00 0.00 97 1015.9
20260831025520 14 0.0 0.0 0.00 0.00 0.00 97 1016.2
20260831024522 14 0.0 0.0 0.00 0.00 0.00 97 1016.1
20260831023520 14 0.0 0.0 0.00 0.00 0.00 97 1016.1
20260831022519 14 0.0 0.0 0.00 0.00 0.00 97 1016.1
20260831021540 14 0.0 0.0 0.00 0.00 0.00 97 1016.1
20260831020519 14 0.0 0.0 0.00 0.00 0.00 97 1016.1
20260831015519 14 0.0 0.0 0.00 0.00 0.00 97 1016.1
20260831014540 14 0.0 0.0 0.00 0.00 0.00 97 1016.0
20260831013519 14 0.0 0.0 0.00 0.00 0.00 96 1016.0
20260831012520 15 0.0 0.0 0.00 0.00 0.00 96 1016.1
20260831011520 15 0.0 0.0 0.00 0.00 0.00 96 1016.4
20260831010520 15 0.0 0.0 0.00 0.00 0.00 96 1016.4
20260831005519 15 0.0 0.0 0.00 0.00 0.00 96 1016.4
20260831004521 15 0.0 0.0 0.00 0.00 0.00 96 1016.4
20260831003640 15 0.0 0.0 0.00 0.00 0.00 96 1016.4
20260831002520 15 0.0 0.0 0.00 0.00 0.00 95 1016.4
20260831001520 15 0.0 0.0 0.00 0.00 0.00 95 1016.7
20260831000523 15 0.0 0.0 0.00 0.00 0.00 95 1016.7
20260830235522 15 0.0 0.0 0.00 0.00 0.00 95 1016.4
20260830234544 16 0.0 0.0 0.00 0.00 0.00 95 1016.7
20260830233521 16 0.0 0.0 0.00 0.00 0.00 94 1016.7
20260830232552 16 0.0 0.0 0.00 0.00 0.00 94 1016.7
20260830231520 16 0.0 0.0 0.00 0.00 0.00 93 1016.7
20260830230520 16 0.0 0.0 0.00 0.00 0.00 93 1016.7
20260830225543 16 0.0 0.0 0.00 0.00 0.00 93 1017.1
20260830224521 16 0.0 0.0 0.00 0.00 0.00 93 1017.0
20260830223519 16 0.0 0.0 0.00 0.00 0.00 92 1017.1
20260830222523 16 0.0 0.0 0.00 0.00 0.00 92 1016.7
20260830221543 16 0.0 0.0 0.00 0.00 0.00 91 1016.7
20260830220544 16 0.0 0.0 0.00 0.00 0.00 90 1016.7
20260830215601 16 0.0 0.0 0.00 0.00 0.00 90 1016.7
20260830214549 17 0.0 0.0 0.00 0.00 0.00 89 1016.7
20260830213520 17 0.0 0.0 0.00 0.00 0.00 89 1016.7
20260830212527 17 0.0 0.0 0.00 0.00 0.00 90 1016.3
20260830211552 17 0.0 0.0 0.00 0.00 0.00 89 1016.4
20260830210613 17 0.0 0.0 0.00 0.00 0.00 89 1016.4
20260830205518 17 0.0 0.0 0.00 0.00 0.00 88 1016.7
20260830204539 17 0.0 0.0 0.00 0.00 0.00 88 1016.4
20260830203518 17 0.0 0.0 0.00 0.00 0.00 87 1016.4
20260830202519 18 0.0 0.0 0.00 0.00 0.00 86 1016.4
20260830201523 18 0.0 0.0 0.00 0.00 0.00 85 1016.3
20260830200525 18 0.0 0.0 0.00 0.00 0.00 85 1016.3
20260830195534 18 0.0 0.0 0.00 0.00 0.00 83 1016.3
20260830194541 18 0.0 0.0 0.00 0.00 0.00 83 1016.2
20260830193525 18 0.0 0.0 0.00 0.00 0.00 81 1016.2
20260830192521 19 0.0 0.0 0.00 0.00 0.00 81 1015.9
20260830191541 19 0.0 0.0 0.00 0.00 0.00 80 1016.1
20260830190541 20 0.0 0.0 0.00 0.00 0.00 80 1016.0
20260830185524 20 0.0 0.0 0.00 0.00 0.00 78 1015.8
20260830184550 20 0.0 0.0 0.00 0.00 0.00 77 1015.8
20260830183521 20 0.0 0.0 0.00 0.00 0.00 76 1015.8
20260830182635 21 0.0 0.0 0.00 0.00 0.00 73 1015.4
20260830181519 21 0.0 0.0 0.00 0.00 0.00 71 1015.4
20260830180519 22 0.0 0.0 0.00 0.00 0.00 69 1015.4
20260830175539 22 0.0 0.0 0.00 0.00 0.00 69 1015.0
20260830174525 22 0.0 0.0 0.00 0.00 0.00 67 1015.0
20260830173519 23 0.0 0.0 0.00 0.00 0.00 65 1015.0
20260830172540 23 0.0 0.0 0.00 0.00 0.00 63 1014.8
20260830171519 23 0.0 0.0 0.00 0.00 0.00 61 1014.7
20260830170600 25 0.0 0.0 0.00 0.00 0.00 60 1014.7
20260830165520 25 0.0 0.0 0.00 0.00 0.00 57 1014.8
20260830164521 26 0.0 0.0 0.00 0.00 0.00 55 1014.8
20260830163549 26 0.0 0.0 0.00 0.00 0.00 52 1014.8
20260830162520 26 291 0.0 4.8 0.00 0.00 0.00 52 1014.8
20260830161601 27 268 1.6 4.8 0.00 0.00 0.00 50 1015.1
20260830160521 27 273 0.0 1.6 0.00 0.00 0.00 51 1015.1
20260830155520 27 302 1.6 4.8 0.00 0.00 0.00 50 1014.9
20260830154520 28 232 0.0 0.0 0.00 0.00 0.00 50 1015.3
20260830153522 28 0.0 0.0 0.00 0.00 0.00 49 1015.3
20260830152521 29 322 0.0 1.6 0.00 0.00 0.00 48 1015.3
20260830151519 31 274 0.0 0.0 0.00 0.00 0.00 45 1015.4
20260830150519 31 270 3.2 6.4 0.00 0.00 0.00 44 1015.5
20260830145537 31 43 0.0 3.2 0.00 0.00 0.00 44 1015.8
20260830144520 31 121 0.0 1.6 0.00 0.00 0.00 46 1015.8
20260830143523 30 340 0.0 9.7 0.00 0.00 0.00 46 1015.7
20260830142518 29 196 0.0 3.2 0.00 0.00 0.00 47 1015.7
20260830141521 29 329 0.0 3.2 0.00 0.00 0.00 50 1016.1
20260830140539 29 0.0 0.0 0.00 0.00 0.00 48 1016.0
20260830135521 28 330 0.0 1.6 0.00 0.00 0.00 51 1016.0
20260830134518 28 332 0.0 4.8 0.00 0.00 0.00 51 1016.4
20260830133552 28 260 1.6 6.4 0.00 0.00 0.00 50 1016.4
20260830132603 28 235 0.0 4.8 0.00 0.00 0.00 50 1016.7
20260830131542 28 331 1.6 6.4 0.00 0.00 0.00 50 1016.7
20260830130519 28 269 3.2 8.0 0.00 0.00 0.00 50 1016.7
20260830125520 28 249 3.2 9.7 0.00 0.00 0.00 49 1016.7
20260830124544 27 288 1.6 6.4 0.00 0.00 0.00 52 1016.6
20260830123524 28 302 1.6 4.8 0.00 0.00 0.00 50 1016.7
20260830122525 27 269 1.6 4.8 0.00 0.00 0.00 51 1016.6
20260830121519 27 327 1.6 6.4 0.00 0.00 0.00 52 1016.6
20260830120524 27 268 1.6 6.4 0.00 0.00 0.00 51 1016.6
20260830115518 27 270 1.6 6.4 0.00 0.00 0.00 52 1017.0
20260830114554 26 318 0.0 3.2 0.00 0.00 0.00 53 1016.9
20260830113521 26 274 3.2 8.0 0.00 0.00 0.00 53 1017.0
20260830112541 26 270 3.2 8.0 0.00 0.00 0.00 53 1017.0
20260830111613 26 262 1.6 6.4 0.00 0.00 0.00 54 1017.3
20260830110519 26 283 3.2 6.4 0.00 0.00 0.00 55 1017.3
20260830105522 26 275 3.2 6.4 0.00 0.00 0.00 54 1017.3
20260830104541 26 250 1.6 4.8 0.00 0.00 0.00 57 1017.3
20260830103554 26 214 1.6 6.4 0.00 0.00 0.00 58 1017.3
20260830102518 26 284 1.6 6.4 0.00 0.00 0.00 60 1018.0
20260830100519 25 282 0.0 6.4 0.00 0.00 0.00 63 1017.6
20260830095520 25 262 1.6 6.4 0.00 0.00 0.00 63 1017.9
20260830094520 24 254 3.2 6.4 0.00 0.00 0.00 63 1018.3
20260830093602 24 271 3.2 6.4 0.00 0.00 0.00 64 1018.3
20260830092540 24 257 1.6 8.0 0.00 0.00 0.00 64 1018.3
20260830091520 24 270 1.6 9.7 0.00 0.00 0.00 64 1018.3
20260830090523 24 268 1.6 4.8 0.00 0.00 0.00 64 1018.3
20260830085521 24 270 1.6 6.4 0.00 0.00 0.00 64 1018.7
20260830084541 25 297 1.6 6.4 0.00 0.00 0.00 64 1018.3